KUIPER-00160

导读 | 豆包AI

KUIPER-00160是美国亚马逊柯伊伯(Project Kuiper)星座的卫星,于2026年2月12日发射,是该星座组网进程中的一颗卫星。该星座计划部署超3200颗卫星,旨在为全球提供高速卫星互联网服务。卫星配备相控阵天线,可灵活分配容量,工作在Ka频段,支持高速数据传输,助力星座实现全球网络覆盖。

Basic Information
目录编号:
67765
目录名称:
KUIPER-00160
国际标识:
2026-030B
轨道中心:
EARTH
卫星名称:
KUIPER-00160
卫星全名:
KUIPER-00160
卫星状态:
在轨 (已飞行77 天)
发射日期:
2026-02-12 UTC
国别 :
美国 (US)
星等 :
--
Orbit Information
数据来源 国际轨道数据
星历时间: 2026-04-30T08:25:30+0800
8小时前
查看轨道信息
半长轴: 6832.633km
偏心率: 0.0005297
轨道倾角: 51.882°
近地点辐角 226.684°
升交点赤经 331.368°
平近点角 133.370°
近地点: 450.876km
远地点: 458.116km
周期: 93.679分钟
每日圈数: 15.371657
Detailed Information
使用方式:
暂无
2D Orbit Map
3D Orbit Map
Orbit Altitude Analysis Chart
Orbit Inclination Analysis Chart
Orbit Comprehensive Analysis Chart
View Comprehensive Chart